Location: Alpha Ridge Park
(39.3209°N, 76.9128°W)
Time: 19:33:11
(UTC-04:00)

Transit 2A - Visible Passes

Search period start: 15 October 2019 00:00
Search period end: 25 October 2019 00:00
Orbit: 600 x 959 km, 66.7° (Epoch: 15 October)

Date Brightness Start Highest point End Pass type
(mag) Time Alt. Az. Time Alt. Az. Time Alt. Az.
15 Oct 6.9 06:07:05 10° NNW 06:11:12 38° NE 06:15:16 10° SE visible
15 Oct 8.3 20:44:57 10° S 20:45:32 13° S 20:45:32 13° S visible
16 Oct 7.6 05:33:17 10° N 05:36:58 26° NE 05:40:36 10° ESE visible
16 Oct 7.5 20:11:23 10° S 20:13:52 22° SSE 20:13:52 22° SSE visible
16 Oct 8.9 21:54:26 10° WSW 21:54:28 10° WSW 21:54:28 10° WSW visible
17 Oct 8.1 04:59:39 10° N 05:02:40 18° NE 05:05:38 10° E visible
17 Oct 5.8 06:41:53 10° NW 06:46:02 45° WSW 06:50:12 10° S visible
17 Oct 7.2 19:38:10 10° SSE 19:42:07 21° ESE 19:42:07 21° ESE visible
17 Oct 7.7 21:19:52 10° SW 21:22:42 28° WSW 21:22:42 28° WSW visible
18 Oct 8.5 04:26:26 10° NNE 04:28:17 12° NE 04:30:07 10° ENE visible
18 Oct 5.4 06:07:38 10° NNW 06:11:59 75° WSW 06:16:20 10° SSE visible
18 Oct 7.7 19:05:33 10° SE 19:08:23 14° ESE 19:10:14 12° E visible
18 Oct 6.1 20:45:31 10° SW 20:50:48 71° W 20:50:48 71° W visible
19 Oct 5.8 05:34:55 20° NNW 05:37:53 68° ENE 05:42:13 10° SE visible
19 Oct 5.9 20:11:23 10° SSW 20:16:59 77° ESE 20:18:45 42° NE visible
19 Oct 8.7 21:57:19 10° W 21:59:18 15° WNW 21:59:18 15° WNW visible
20 Oct 6.6 05:02:59 39° NNE 05:03:43 42° ENE 05:07:52 10° SE visible
20 Oct 7.1 06:43:45 10° WNW 06:46:28 16° WSW 06:49:11 10° SW visible
20 Oct 6.2 19:37:30 10° S 19:42:54 51° ESE 19:46:30 18° NE visible
20 Oct 8.0 21:22:05 10° WSW 21:26:16 23° NW 21:27:03 22° NW visible
21 Oct 7.8 04:31:09 22° E 04:31:09 22° E 04:33:16 10° ESE visible
21 Oct 6.5 06:11:44 24° W 06:12:30 26° WSW 06:16:08 10° SSW visible
21 Oct 6.7 19:03:52 10° S 19:08:52 34° ESE 19:13:27 10° NE visible
21 Oct 7.6 20:47:11 10° WSW 20:52:00 32° NW 20:54:37 20° N visible
22 Oct 6.5 05:39:57 31° SSW 05:39:57 31° SSW 05:42:38 10° S visible
22 Oct 7.0 20:12:33 10° SW 20:17:48 45° WNW 20:22:01 13° NNE visible
23 Oct 7.9 05:08:10 14° SSE 05:08:10 14° SSE 05:08:50 10° SSE visible
23 Oct 6.3 19:38:09 10° SW 19:43:39 67° WNW 19:48:37 10° NNE visible
23 Oct 8.8 21:26:35 10° NW 21:27:36 10° NW 21:28:36 10° NNW visible
24 Oct 6.0 19:03:59 10° SSW 19:09:32 83° ESE 19:14:32 10° NNE visible
24 Oct 8.6 20:50:16 10° W 20:53:11 15° NW 20:56:00 10° NNW visible
